Wind_Speed
75 74 74 74 75 76 77 79 80 80 80 80 81 82 84 85 86 87 88 88 87 86 85 86 86 88 89 91 92 94 96 99 100 102 103 105 106 108 110 111 112 114
77 77 77 77 77 78 80 82 83 83 83 83 84 85 87 88 90 90 91 90 89 88 88 89 90 91 92 94 95 97 100 102 103 104 106 107 109 111 113 114 115 116
79 80 80 80 80 82 83 85 85 86 86 87 88 90 91 93 93 93 92 91 90 90 91 92 93 95 96 97 99 102 103 105 106 107 108 110 112 114 115 116 118 119
81 82 83 84 84 85 86 87 88 89 91 92 93 94 95 96 96 95 94 93 93 93 94 96 97 98 100 101 103 105 106 107 108 110 111 113 114 116 118 119 120 121
83 85 86 87 87 88 89 91 92 94 95 96 97 98 98 98 97 96 96 95 96 97 98 99 101 102 104 105 106 108 109 110 111 113 114 116 117 119 121 122 123 124
85 87 88 89 90 91 92 94 96 98 99 100 101 101 100 99 99 98 98 98 99 100 101 102 104 105 106 108 109 110 111 112 114 115 117 118 120 122 124 125 126 126
87 89 90 91 92 93 95 98 100 101 103 103 103 102 102 102 101 101 101 101 102 103 104 105 107 108 109 110 111 112 114 115 117 118 119 121 123 125 126 127 128 128
90 91 92 93 95 96 99 101 103 105 106 106 105 104 104 104 104 104 104 104 105 106 107 108 110 111 112 113 114 115 116 118 119 120 122 124 126 128 129 129 130 130
92 93 95 96 97 99 101 103 105 107 107 107 107 107 107 107 107 107 108 108 108 109 110 112 113 114 115 116 117 118 119 120 121 123 125 127 129 130 131 131 131 131
94 96 97 98 100 102 103 105 107 108 109 109 109 109 109 110 110 111 111 111 112 112 113 115 116 117 118 119 119 120 121 123 124 126 128 129 131 132 132 132 132 132
98 99 100 101 103 104 105 107 109 110 110 111 111 111 112 112 113 114 114 115 115 116 117 118 119 120 120 121 122 123 124 125 127 129 130 132 133 133 134 133 133 133
101 102 103 104 105 106 108 109 110 111 112 113 114 114 114 115 116 117 118 118 119 119 120 121 121 122 123 123 124 125 126 128 129 131 132 134 135 135 135 134 134 133
105 106 106 107 108 109 110 111 112 114 115 115 116 117 117 118 119 120 120 121 122 122 122 123 124 124 125 125 126 127 129 130 132 133 134 135 135 135 135 134 133 132
108 109 109 110 111 112 112 113 114 116 116 117 118 119 120 121 121 122 123 123 124 124 124 125 126 126 127 127 128 129 131 132 133 135 135 136 136 135 134 133 133 133
111 112 112 113 114 114 115 115 116 117 118 119 120 121 122 123 124 125 125 125 125 126 126 127 127 128 129 129 130 132 133 134 135 136 136 135 135 134 133 133 133 134
114 115 115 116 116 117 117 118 119 119 120 121 122 123 124 125 126 126 126 126 127 127 128 128 129 130 131 131 132 133 134 135 136 136 136 135 133 132 132 133 134 135
116 117 117 118 118 119 119 120 121 122 122 123 124 125 126 127 127 127 128 128 128 129 130 130 131 132 133 133 134 135 136 136 136 136 135 134 133 133 133 134 135 136
118 119 119 120 120 121 121 122 123 123 124 125 126 127 127 127 128 128 129 130 130 131 132 132 133 134 134 135 136 137 137 137 136 134 133 133 134 134 135 136 137 138
120 120 121 122 122 123 124 124 125 126 126 127 127 128 128 128 128 129 130 131 132 133 133 134 134 135 136 137 138 138 137 136 134 134 134 135 136 137 138 139 139 139
122 122 123 124 125 125 126 127 127 128 128 128 128 129 129 129 130 130 131 132 133 134 134 135 135 137 138 139 138 137 135 134 134 135 136 137 139 140 140 140 140 140
124 125 125 126 127 127 128 129 129 129 129 129 130 130 131 131 132 132 133 134 134 135 136 137 138 139 139 138 137 135 135 135 136 137 138 139 140 140 141 141 143 144
126 127 127 128 129 129 130 130 130 130 130 131 131 132 132 133 133 134 134 135 136 137 139 140 140 140 138 137 136 135 136 137 138 139 139 139 140 141 143 145 147 148
128 129 129 130 130 131 131 131 131 131 131 132 132 132 133 134 134 135 136 137 139 140 141 140 139 138 137 136 137 137 138 139 139 139 139 140 142 144 146 147 148 149
130 131 131 131 131 132 132 132 132 132 132 132 133 133 134 135 136 137 139 140 141 140 140 138 137 137 137 138 139 139 139 139 140 140 142 143 145 146 147 147 147 147
132 132 132 132 132 132 132 132 132 132 133 133 134 134 135 136 138 139 140 140 140 138 138 137 137 138 138 139 140 140 141 142 143 144 145 146 146 145 145 145 145 146
133 133 132 132 132 132 132 132 132 133 133 134 135 136 137 138 139 139 139 138 138 138 138 138 138 139 140 141 142 143 145 146 147 147 146 145 145 144 143 143 144 145
Wind_Direction
291 291 291 292 293 295 297 300 301 301 300 298 298 297 297 297 298 299 300 302 303 304 305 306 307 307 308 308 309 309 309 309 309 309 309 310 310 310 311 311 312 312
290 290 290 291 293 294 296 298 300 300 299 298 297 297 297 297 298 299 301 302 304 305 305 306 307 307 307 308 308 308 308 308 308 308 309 309 310 310 310 311 311 311
289 290 290 291 292 293 295 298 299 299 299 298 297 297 297 298 299 301 302 303 305 305 306 306 307 307 307 307 307 307 307 308 308 308 308 309 309 310 310 310 310 310
289 290 290 290 291 293 295 297 298 299 299 298 297 297 298 299 300 302 303 304 305 306 306 306 306 306 306 306 307 307 307 307 307 307 307 308 309 309 309 309 310 310
289 289 290 290 291 292 294 296 297 298 298 298 298 298 298 299 301 302 303 304 305 305 306 306 306 306 306 306 306 306 306 306 306 307 307 308 308 309 309 309 309 309
289 289 290 290 290 291 293 295 296 297 297 298 297 298 298 300 301 302 303 304 304 305 305 305 305 305 305 305 305 305 305 306 306 306 307 307 308 308 308 309 309 309
289 289 290 290 290 290 291 292 294 295 296 297 297 298 298 300 301 302 302 303 303 304 304 304 304 304 304 305 305 305 305 305 306 306 307 307 307 308 308 308 308 309
289 289 289 290 289 289 290 291 293 295 296 297 297 298 298 299 300 301 302 302 303 303 303 303 303 304 304 304 304 305 305 305 306 306 306 307 307 308 308 308 308 308
288 289 289 289 289 289 290 291 293 294 296 297 298 298 298 299 300 300 301 302 302 303 303 303 303 303 304 304 304 304 305 305 305 306 306 306 307 307 307 308 308 308
288 288 288 288 289 290 291 292 293 295 296 297 297 298 298 299 299 300 301 301 302 302 302 302 303 303 303 304 304 304 304 305 305 305 306 306 306 307 307 307 307 307
288 287 288 289 290 291 292 293 294 295 295 296 297 297 298 299 299 300 300 301 301 301 302 302 302 303 303 303 303 304 304 304 304 305 305 306 306 306 307 307 307 307
287 288 288 289 290 291 292 293 294 294 295 296 296 297 298 298 299 300 300 300 300 301 301 301 302 302 303 303 303 303 303 303 304 304 305 305 306 306 306 306 307 307
287 288 289 289 290 291 292 292 293 294 294 295 296 297 297 298 299 299 299 300 300 300 301 301 301 302 302 302 302 302 303 303 304 304 305 305 305 306 306 306 306 306
287 288 289 289 290 291 291 292 292 293 294 295 296 296 297 298 298 298 299 299 299 300 300 301 301 301 301 301 301 302 302 303 303 304 304 304 305 305 305 305 305 305
287 288 288 289 290 290 291 292 292 293 294 295 295 296 297 297 298 298 298 298 299 299 299 300 300 300 300 300 301 301 302 302 303 303 304 304 304 304 304 304 304 304
287 287 288 289 289 290 291 292 292 293 294 294 295 296 296 297 297 297 297 298 298 298 298 299 299 299 299 299 300 300 301 302 302 303 303 303 303 303 303 303 304 304
287 287 288 289 290 290 291 292 293 293 293 294 294 295 295 296 296 296 296 297 297 297 298 298 298 298 298 299 299 300 301 301 302 302 302 302 302 302 302 302 302 303
287 287 288 289 290 291 291 292 292 292 293 293 293 294 294 295 295 295 296 296 296 297 297 297 297 298 298 299 300 300 301 301 301 301 301 301 302 302 302 302 302 302
287 288 288 289 290 290 291 291 291 292 292 292 293 293 293 294 294 294 295 295 296 296 296 296 297 298 298 299 300 300 300 301 301 301 301 301 301 301 301 301 302 302
287 288 288 288 289 289 290 290 291 291 292 292 292 292 293 293 294 294 294 295 295 295 296 296 297 298 298 299 299 300 300 300 300 300 300 300 301 301 301 301 302 302
286 287 287 288 288 289 289 290 290 291 291 291 292 292 292 293 293 294 294 294 294 295 295 296 297 297 298 298 299 299 299 299 299 300 300 300 300 301 301 301 301 301
285 286 286 287 287 288 289 289 290 290 291 291 292 292 293 293 293 293 294 294 294 295 296 296 297 297 297 298 298 298 298 298 299 299 300 300 300 300 300 301 301 301
285 285 286 286 287 288 288 289 289 290 291 291 292 292 292 292 293 293 293 294 294 295 295 296 296 296 297 297 297 297 298 298 299 299 299 299 299 300 300 300 301 301
284 285 286 286 287 288 288 289 289 290 290 291 291 291 291 292 292 292 293 294 294 295 295 295 295 296 296 297 297 297 298 298 298 298 298 299 299 300 300 300 301 301
284 285 286 286 287 287 288 289 289 289 290 290 290 290 291 291 292 292 293 293 294 294 294 295 295 296 296 296 296 297 297 297 297 297 298 298 299 299 300 301 302 302
284 285 285 286 286 287 287 288 288 288 289 289 289 290 290 291 291 292 292 293 293 293 294 294 295 295 295 295 295 296 296 297 297 298 298 299 299 300 301 301 302 303
Height
10800 10798 10796 10794 10792 10790 10788 10786 10783 10781 10779 10777 10774 10771 10768 10766 10763 10761 10758 10756 10753 10750 10748 10744 10741 10738 10734 10730 10726 10722 10717 10713 10708 10704 10699 10693 10688 10683 10677 10673 10668 10662
10794 10792 10790 10788 10785 10783 10781 10779 10776 10774 10772 10769 10766 10763 10760 10757 10755 10753 10750 10747 10745 10742 10739 10735 10732 10728 10724 10720 10716 10711 10707 10703 10698 10693 10688 10683 10677 10672 10667 10662 10657 10651
10786 10784 10782 10780 10778 10775 10773 10771 10768 10766 10763 10760 10757 10754 10751 10749 10746 10744 10741 10739 10736 10733 10729 10726 10722 10718 10714 10710 10705 10701 10696 10692 10687 10683 10678 10672 10667 10662 10656 10651 10646 10640
10777 10775 10773 10771 10769 10767 10764 10762 10759 10756 10753 10750 10747 10745 10742 10740 10737 10735 10732 10729 10726 10723 10719 10715 10711 10707 10703 10699 10695 10691 10686 10681 10677 10672 10667 10662 10657 10651 10646 10640 10635 10629
10769 10767 10765 10763 10761 10758 10756 10753 10750 10747 10744 10741 10738 10736 10733 10731 10728 10726 10723 10720 10716 10713 10709 10705 10701 10697 10693 10689 10684 10680 10676 10671 10666 10661 10657 10652 10646 10640 10634 10628 10622 10616
10761 10760 10758 10756 10753 10750 10747 10744 10741 10738 10735 10733 10730 10727 10724 10722 10719 10716 10713 10710 10707 10703 10699 10695 10691 10687 10683 10679 10674 10670 10665 10660 10655 10650 10645 10640 10635 10629 10622 10615 10609 10602
10753 10752 10750 10748 10745 10742 10739 10736 10732 10730 10727 10724 10721 10718 10715 10712 10709 10706 10703 10700 10697 10693 10689 10685 10681 10677 10673 10669 10664 10660 10655 10650 10645 10639 10634 10628 10622 10616 10610 10603 10596 10589
10745 10744 10741 10739 10736 10733 10729 10726 10723 10720 10717 10714 10711 10708 10705 10702 10699 10696 10693 10690 10687 10683 10679 10674 10670 10666 10662 10658 10654 10649 10644 10639 10634 10628 10622 10616 10610 10603 10597 10590 10584 10577
10737 10735 10732 10729 10726 10723 10720 10716 10713 10710 10707 10704 10701 10697 10695 10691 10688 10685 10682 10679 10676 10672 10668 10664 10659 10655 10651 10647 10643 10638 10634 10628 10623 10617 10611 10604 10597 10591 10585 10578 10571 10565
10728 10725 10722 10719 10716 10713 10710 10707 10703 10700 10696 10693 10690 10687 10684 10681 10678 10674 10671 10668 10664 10661 10657 10653 10649 10645 10640 10637 10632 10627 10623 10617 10611 10606 10599 10593 10586 10579 10573 10566 10559 10552
10718 10715 10712 10709 10706 10704 10701 10697 10693 10690 10686 10683 10680 10676 10673 10670 10666 10663 10659 10656 10652 10649 10645 10641 10638 10634 10630 10626 10621 10616 10611 10605 10599 10593 10587 10580 10573 10567 10560 10553 10546 10539
10708 10705 10702 10700 10697 10694 10691 10687 10684 10680 10676 10673 10669 10666 10662 10659 10655 10652 10648 10644 10641 10637 10633 10630 10626 10623 10619 10615 10610 10605 10599 10593 10587 10581 10574 10567 10560 10553 10546 10540 10533 10526
10697 10695 10692 10690 10687 10685 10682 10678 10674 10670 10666 10662 10658 10655 10651 10648 10644 10640 10636 10633 10629 10625 10622 10618 10615 10611 10607 10603 10598 10593 10587 10581 10575 10568 10561 10554 10547 10540 10533 10527 10521 10513
10687 10684 10682 10679 10677 10674 10672 10669 10665 10660 10656 10652 10648 10644 10640 10636 10632 10628 10624 10620 10617 10613 10610 10606 10603 10599 10595 10591 10586 10581 10575 10569 10563 10556 10549 10542 10534 10528 10521 10514 10508 10501
10676 10674 10671 10669 10666 10664 10662 10659 10655 10651 10647 10642 10638 10634 10629 10624 10620 10616 10612 10608 10604 10601 10598 10594 10591 10587 10583 10579 10574 10569 10563 10556 10550 10544 10537 10531 10524 10517 10509 10502 10495 10488
10665 10663 10661 10659 10656 10654 10651 10649 10645 10641 10637 10632 10627 10623 10618 10613 10608 10604 10599 10596 10592 10589 10585 10582 10578 10574 10570 10567 10562 10557 10552 10545 10538 10531 10525 10519 10513 10506 10499 10491 10483 10475
10655 10653 10651 10648 10646 10643 10641 10638 10634 10630 10626 10622 10617 10612 10607 10602 10597 10592 10587 10583 10579 10576 10573 10569 10565 10561 10557 10554 10549 10545 10539 10533 10526 10520 10513 10505 10500 10494 10488 10481 10473 10465
10646 10643 10641 10638 10635 10632 10629 10626 10622 10618 10614 10610 10606 10601 10596 10591 10585 10580 10575 10570 10566 10562 10559 10555 10551 10548 10544 10540 10535 10530 10525 10519 10513 10506 10500 10493 10486 10480 10474 10468 10462 10455
10635 10633 10630 10627 10624 10620 10617 10613 10609 10606 10602 10598 10594 10589 10584 10579 10574 10569 10563 10558 10553 10549 10545 10542 10538 10534 10530 10526 10521 10516 10510 10504 10498 10492 10486 10479 10472 10465 10459 10453 10446 10441
10624 10621 10618 10615 10611 10607 10604 10600 10596 10593 10589 10585 10580 10575 10571 10566 10561 10557 10552 10546 10541 10536 10532 10529 10525 10521 10517 10512 10507 10502 10496 10490 10484 10478 10471 10464 10457 10450 10443 10437 10430 10425
10611 10608 10605 10602 10598 10594 10591 10587 10583 10580 10575 10571 10566 10561 10557 10552 10548 10543 10539 10533 10528 10523 10518 10515 10511 10507 10503 10498 10493 10488 10483 10477 10471 10465 10458 10450 10442 10435 10427 10420 10414 10408
10599 10595 10592 10588 10585 10581 10578 10574 10570 10566 10562 10557 10553 10548 10543 10538 10533 10529 10524 10519 10515 10509 10504 10500 10496 10493 10489 10484 10479 10474 10469 10463 10457 10451 10444 10436 10428 10421 10413 10404 10397 10390
10586 10583 10579 10576 10572 10569 10565 10561 10557 10553 10549 10544 10539 10534 10529 10525 10520 10515 10510 10505 10501 10495 10490 10485 10481 10477 10474 10469 10464 10459 10454 10449 10443 10436 10430 10423 10415 10407 10398 10389 10381 10373
10573 10570 10566 10563 10559 10555 10552 10548 10544 10540 10536 10531 10526 10521 10516 10512 10507 10502 10497 10492 10487 10481 10476 10471 10466 10462 10458 10453 10448 10443 10439 10434 10428 10423 10416 10409 10403 10394 10385 10375 10366 10357
10560 10557 10554 10550 10546 10543 10539 10535 10531 10527 10523 10518 10514 10509 10504 10499 10493 10488 10483 10477 10472 10467 10462 10457 10452 10447 10442 10437 10432 10427 10423 10419 10414 10409 10403 10396 10389 10382 10374 10364 10353 10341
10548 10544 10541 10538 10534 10530 10527 10523 10519 10515 10510 10506 10501 10496 10491 10486 10480 10474 10468 10463 10457 10452 10447 10442 10438 10433 10427 10422 10417 10412 10407 10403 10397 10392 10387 10381 10374 10367 10361 10353 10343 10331